CW2523 Weather Reports


time (UTC)temp
C
wind
direction
speed
KPH
gust
KPH
rain 1hr
cm
rain 24hr
cm
rain mn
cm
humidity
%
barometer
mb
20260510202551 20 62 8.0 20.9 0.00 0.00 0.00 52 1019.0
20260510202049 21 43 6.4 20.9 0.00 0.00 0.00 51 1019.1
20260510201556 21 7 8.0 20.9 0.00 0.00 0.00 49 1019.1
20260510201050 21 28 8.0 19.3 0.00 0.00 0.00 46 1019.1
20260510200550 21 46 8.0 19.3 0.00 0.00 0.00 49 1019.1
20260510200053 21 22 8.0 17.7 0.00 0.00 0.00 49 1019.2
20260510195550 20 6 8.0 17.7 0.00 0.00 0.00 51 1019.2
20260510195054 20 358 8.0 14.5 0.00 0.00 0.00 50 1019.3
20260510194552 20 45 6.4 16.1 0.00 0.00 0.00 50 1019.4
20260510194053 20 33 8.0 17.7 0.00 0.00 0.00 50 1019.6
20260510193550 20 20 9.7 17.7 0.00 0.00 0.00 47 1019.6
20260510193107 21 16 8.0 16.1 0.00 0.00 0.00 55 1019.6
20260510192549 20 20 8.0 14.5 0.00 0.00 0.00 49 1019.7
20260510192050 20 52 6.4 17.7 0.00 0.00 0.00 50 1019.6
20260510191600 20 62 8.0 17.7 0.00 0.00 0.00 52 1019.6
20260510191049 20 92 6.4 17.7 0.00 0.00 0.00 48 1019.5
20260510190552 20 39 8.0 19.3 0.00 0.00 0.00 52 1019.6
20260510190059 20 8 9.7 19.3 0.00 0.00 0.00 52 1019.7
20260510185549 20 3 8.0 16.1 0.00 0.00 0.00 51 1019.7
20260510185050 20 330 6.4 16.1 0.00 0.00 0.00 49 1019.5
20260510184555 20 56 8.0 16.1 0.00 0.00 0.00 49 1019.4
20260510184053 20 36 8.0 16.1 0.00 0.00 0.00 50 1019.4
20260510183550 20 39 6.4 12.9 0.00 0.00 0.00 52 1019.4
20260510183057 20 56 6.4 20.9 0.00 0.00 0.00 51 1019.5
20260510182554 20 52 4.8 20.9 0.00 0.00 0.00 56 1019.4
20260510182054 20 25 8.0 20.9 0.00 0.00 0.00 55 1019.4
20260510181552 20 33 6.4 14.5 0.00 0.00 0.00 55 1019.2
20260510181050 20 37 6.4 14.5 0.00 0.00 0.00 56 1019.1
20260510180550 20 72 6.4 16.1 0.00 0.00 0.00 54 1019.3
20260510180112 20 22 6.4 16.1 0.00 0.00 0.00 55 1019.2
20260510175549 20 41 8.0 14.5 0.00 0.00 0.00 54 1019.2
20260510175049 20 62 4.8 14.5 0.00 0.00 0.00 55 1019.2
20260510174557 20 45 6.4 14.5 0.00 0.00 0.00 52 1019.2
20260510174050 19 47 6.4 19.3 0.00 0.00 0.00 54 1019.1
20260510173552 19 34 8.0 19.3 0.00 0.00 0.00 56 1019.0
20260510173057 20 39 4.8 14.5 0.00 0.00 0.00 54 1019.1
20260510172550 20 37 6.4 14.5 0.00 0.00 0.00 59 1019.1
20260510172050 20 95 8.0 17.7 0.00 0.00 0.00 57 1019.1
20260510171603 19 41 6.4 17.7 0.00 0.00 0.00 57 1019.1
20260510171050 19 35 8.0 17.7 0.00 0.00 0.00 56 1019.1
20260510170551 18 70 6.4 17.7 0.00 0.00 0.00 53 1019.1
20260510165550 18 58 9.7 17.7 0.00 0.00 0.00 59 1019.1
20260510165052 18 7 9.7 20.9 0.00 0.00 0.00 61 1019.0
20260510164559 18 36 9.7 20.9 0.00 0.00 0.00 59 1019.0
20260510164051 18 48 9.7 20.9 0.00 0.00 0.00 62 1018.9
20260510163550 18 43 12.9 19.3 0.00 0.00 0.00 58 1018.9
20260510163053 18 26 9.7 17.7 0.00 0.00 0.00 58 1018.7
20260510162549 18 39 9.7 19.3 0.00 0.00 0.00 60 1018.7
20260510162049 18 35 8.0 20.9 0.00 0.00 0.00 59 1018.6
20260510161554 18 66 11.3 20.9 0.00 0.00 0.00 61 1018.7
20260510161051 18 347 8.0 17.7 0.00 0.00 0.00 61 1018.6
20260510160551 17 54 9.7 22.5 0.00 0.00 0.00 64 1018.5
20260510160100 17 8 12.9 22.5 0.00 0.00 0.00 62 1018.4
20260510155550 17 33 9.7 22.5 0.00 0.00 0.00 63 1018.3
20260510155052 17 43 11.3 22.5 0.00 0.00 0.00 63 1018.3
20260510154603 17 37 9.7 19.3 0.00 0.00 0.00 64 1018.3
20260510154053 17 29 8.0 19.3 0.00 0.00 0.00 67 1018.3
20260510153549 17 28 9.7 19.3 0.00 0.00 0.00 66 1018.4
20260510153056 17 41 9.7 19.3 0.00 0.00 0.00 66 1018.6
20260510152550 17 20 4.8 14.5 0.00 0.00 0.00 68 1018.5
20260510152052 17 13 4.8 12.9 0.00 0.00 0.00 71 1018.4
20260510151555 17 33 6.4 16.1 0.00 0.00 0.00 69 1018.5
20260510151052 16 54 8.0 16.1 0.00 0.00 0.00 69 1018.5
20260510150551 16 12 9.7 16.1 0.00 0.00 0.00 68 1018.4
20260510150054 17 35 9.7 16.1 0.00 0.00 0.00 68 1018.4
20260510145549 17 20 8.0 17.7 0.00 0.00 0.00 69 1018.5
20260510145049 17 56 6.4 17.7 0.00 0.00 0.00 72 1018.4
20260510144554 16 41 6.4 14.5 0.00 0.00 0.00 71 1018.3
20260510144050 17 41 4.8 16.1 0.00 0.00 0.00 72 1018.4
20260510143550 17 36 6.4 16.1 0.00 0.00 0.00 74 1018.3
20260510143058 16 344 4.8 17.7 0.00 0.00 0.00 75 1018.3
20260510142551 16 338 6.4 20.9 0.00 0.00 0.00 77 1018.2
20260510142050 16 24 8.0 20.9 0.00 0.00 0.00 77 1018.1
20260510141553 16 62 11.3 19.3 0.00 0.00 0.00 77 1018.1
20260510141050 16 3 9.7 19.3 0.00 0.00 0.00 78 1018.1
20260510140554 15 22 9.7 19.3 0.00 0.00 0.00 79 1018.0
20260510140052 15 20 9.7 19.3 0.00 0.00 0.00 78 1017.9
20260510135550 15 47 11.3 20.9 0.00 0.00 0.00 79 1017.9
20260510135050 15 20 11.3 20.9 0.00 0.00 0.00 79 1017.9
20260510134555 15 31 11.3 19.3 0.00 0.00 0.00 79 1017.8
20260510134054 15 26 9.7 19.3 0.00 0.00 0.00 79 1017.7
20260510133553 15 7 8.0 19.3 0.00 0.00 0.00 79 1017.6
20260510133059 15 37 11.3 19.3 0.00 0.00 0.00 78 1017.6
20260510132551 15 62 9.7 17.7 0.00 0.00 0.00 78 1017.3
20260510132053 15 44 9.7 17.7 0.00 0.00 0.00 79 1017.3
20260510131555 15 54 9.7 22.5 0.00 0.00 0.00 80 1017.2
20260510131050 15 26 11.3 22.5 0.00 0.00 0.00 81 1017.0
20260510130554 15 75 8.0 16.1 0.00 0.00 0.00 83 1017.0
20260510130056 14 32 6.4 16.1 0.00 0.00 0.00 84 1017.0
20260510125549 14 43 6.4 16.1 0.00 0.00 0.00 85 1017.0
20260510125051 14 79 8.0 16.1 0.00 0.00 0.00 85 1016.8
20260510124613 14 70 6.4 14.5 0.00 0.00 0.00 85 1016.8
20260510124053 13 16 6.4 14.5 0.00 0.00 0.00 85 1016.9
20260510123551 13 31 6.4 12.9 0.00 0.00 0.00 85 1016.8
20260510123056 13 5 4.8 11.3 0.00 0.00 0.00 85 1016.7
20260510122551 13 2 4.8 11.3 0.00 0.00 0.00 84 1016.7
20260510122049 13 7 4.8 11.3 0.00 0.00 0.00 84 1016.7
20260510121551 13 6 3.2 9.7 0.00 0.00 0.00 84 1016.7
20260510121050 13 350 0.0 11.3 0.00 0.00 0.00 84 1016.8
20260510120715 13 353 3.2 11.3 0.00 0.00 0.00 84 1016.7
20260510120549 13 353 3.2 11.3 0.00 0.00 0.00 84 1016.7
20260510120057 12 4 1.6 6.4 0.00 0.00 0.00 86 1016.5
20260510115549 12 27 1.6 4.8 0.00 0.03 0.00 88 1016.1
20260510115054 11 0 0.0 3.2 0.00 0.03 0.00 84 1015.9
20260510114552 11 0 1.6 3.2 0.00 0.03 0.00 84 1015.8
20260510114049 12 322 0.0 1.6 0.00 0.03 0.00 84 1015.9
20260510113552 12 0 0.0 0.0 0.00 0.03 0.00 83 1015.8
20260510113102 12 0 0.0 1.6 0.00 0.03 0.00 82 1015.8
20260510112549 12 0 0.0 1.6 0.00 0.03 0.00 82 1015.8
20260510112049 12 0 0.0 0.0 0.00 0.03 0.00 82 1015.8
20260510111610 12 0 0.0 0.0 0.00 0.03 0.00 82 1015.7
20260510111052 12 0 0.0 0.0 0.00 0.03 0.00 82 1015.7
20260510110549 12 0 0.0 3.2 0.00 0.03 0.00 82 1015.6
20260510110055 12 0 0.0 3.2 0.00 0.03 0.00 82 1015.5
20260510105549 12 337 0.0 4.8 0.00 0.03 0.00 82 1015.4
20260510105050 12 0 0.0 4.8 0.00 0.03 0.00 81 1015.3
20260510104606 12 0 1.6 4.8 0.00 0.03 0.00 81 1015.3
20260510104049 12 347 1.6 3.2 0.00 0.03 0.00 81 1015.2
20260510103548 12 341 0.0 3.2 0.00 0.03 0.00 81 1015.1
20260510103055 12 0 0.0 1.6 0.00 0.03 0.00 80 1015.1
20260510102549 12 0 0.0 1.6 0.00 0.03 0.00 80 1015.0
20260510102049 13 0 0.0 3.2 0.00 0.03 0.00 81 1015.1
20260510101552 13 0 0.0 3.2 0.00 0.03 0.00 80 1015.0
20260510101049 13 0 0.0 3.2 0.00 0.03 0.00 80 1014.8
20260510100553 13 0 0.0 3.2 0.00 0.03 0.00 79 1014.8
20260510100053 13 0 0.0 3.2 0.00 0.03 0.00 79 1014.7
20260510095549 13 0 0.0 0.0 0.00 0.03 0.00 78 1014.6
20260510095051 13 0 0.0 1.6 0.00 0.03 0.00 77 1014.6
20260510094550 13 0 0.0 1.6 0.00 0.03 0.00 75 1014.7
20260510094053 13 0 0.0 4.8 0.00 0.03 0.00 76 1014.8
20260510093549 13 0 0.0 4.8 0.00 0.03 0.00 76 1014.7
20260510093051 13 335 0.0 3.2 0.00 0.03 0.00 74 1014.6
20260510092549 13 0 0.0 3.2 0.00 0.03 0.00 75 1014.3
20260510092053 13 0 0.0 3.2 0.00 0.03 0.00 76 1014.2
20260510091559 13 81 0.0 1.6 0.00 0.03 0.00 76 1014.2
20260510091049 13 0 0.0 1.6 0.00 0.03 0.00 76 1014.1
20260510090550 13 0 0.0 1.6 0.00 0.03 0.00 76 1013.8
20260510090134 13 0 0.0 3.2 0.00 0.03 0.00 75 1013.9
20260510085552 13 0 0.0 4.8 0.00 0.03 0.00 75 1013.9
20260510085050 13 0 1.6 4.8 0.00 0.03 0.00 75 1013.8
20260510084602 13 81 1.6 4.8 0.00 0.03 0.00 77 1013.8
20260510084050 13 0 1.6 3.2 0.00 0.03 0.00 76 1013.8
20260510083552 13 81 1.6 3.2 0.00 0.03 0.00 76 1013.9
20260510083114 13 0 0.0 3.2 0.00 0.03 0.00 76 1013.9
20260510082549 13 0 0.0 3.2 0.00 0.03 0.00 77 1013.9
20260510082050 12 0 0.0 3.2 0.00 0.03 0.00 78 1014.0
20260510081601 12 81 0.0 3.2 0.00 0.03 0.00 77 1014.2
20260510081050 12 81 0.0 3.2 0.00 0.03 0.00 77 1014.1
20260510080551 12 81 0.0 4.8 0.00 0.03 0.00 77 1014.0
20260510075550 12 81 0.0 4.8 0.00 0.05 0.00 79 1013.9
20260510075049 13 81 1.6 4.8 0.00 0.05 0.00 78 1014.0
20260510074558 13 81 0.0 3.2 0.00 0.05 0.00 78 1014.0
20260510074050 13 0 0.0 4.8 0.00 0.05 0.00 77 1014.0
20260510073549 13 0 0.0 4.8 0.00 0.05 0.00 76 1013.9
20260510073057 13 81 3.2 4.8 0.00 0.05 0.00 74 1013.8
20260510072550 13 56 0.0 4.8 0.00 0.05 0.00 73 1013.9
20260510072052 13 56 0.0 4.8 0.00 0.05 0.00 73 1013.9
20260510071557 14 56 0.0 3.2 0.00 0.05 0.00 75 1013.9
20260510071050 14 45 0.0 4.8 0.00 0.05 0.00 71 1014.0
20260510070550 14 0 1.6 4.8 0.00 0.05 0.00 71 1014.0
20260510070109 15 0 0.0 4.8 0.00 0.05 0.00 69 1014.0
20260510065550 15 14 0.0 6.4 0.00 0.05 0.00 67 1014.0
20260510065049 15 0 1.6 11.3 0.00 0.05 0.00 66 1014.1
20260510064613 15 16 3.2 11.3 0.00 0.05 0.00 66 1014.2
20260510064050 15 8 3.2 11.3 0.00 0.05 0.00 67 1014.2
20260510063550 15 0 0.0 9.7 0.00 0.05 0.00 67 1014.3
20260510063106 15 355 1.6 9.7 0.00 0.05 0.00 69 1014.2
20260510062552 15 341 4.8 9.7 0.00 0.05 0.00 70 1014.1
20260510062049 15 359 0.0 3.2 0.00 0.05 0.00 70 1013.9
20260510061600 14 0 0.0 3.2 0.00 0.05 0.00 71 1013.7
20260510061053 14 125 1.6 3.2 0.00 0.05 0.00 72 1013.7
20260510060552 14 125 1.6 3.2 0.00 0.05 0.00 72 1013.6
20260510060053 15 125 0.0 3.2 0.00 0.05 0.00 71 1013.6
20260510055549 16 0 0.0 3.2 0.00 0.05 0.00 67 1013.6
20260510055049 16 0 0.0 3.2 0.00 0.05 0.00 65 1013.7
20260510054551 16 0 0.0 3.2 0.00 0.05 0.00 64 1013.7
20260510054049 16 0 0.0 3.2 0.00 0.05 0.00 65 1013.7
20260510053549 15 0 1.6 3.2 0.00 0.05 0.00 68 1013.6
20260510053053 15 0 0.0 3.2 0.00 0.05 0.00 71 1013.6
20260510052549 15 110 1.6 3.2 0.00 0.05 0.00 69 1013.5
20260510052049 15 110 1.6 3.2 0.00 0.05 0.00 68 1013.5
20260510051559 16 110 0.0 3.2 0.00 0.05 0.00 66 1013.4
20260510051054 16 110 1.6 3.2 0.00 0.05 0.00 66 1013.4
20260510050552 16 110 0.0 3.2 0.00 0.05 0.00 64 1013.4
20260510050051 17 110 1.6 3.2 0.00 0.05 0.00 63 1013.4
20260510045550 16 110 0.0 3.2 0.00 0.05 0.05 64 1013.4
20260510045050 17 0 0.0 3.2 0.00 0.05 0.05 64 1013.5
20260510044557 16 110 0.0 3.2 0.00 0.05 0.05 65 1013.3
20260510044049 16 0 0.0 3.2 0.00 0.05 0.05 66 1013.3
20260510043549 15 0 0.0 3.2 0.00 0.05 0.05 69 1013.2
20260510043053 15 0 0.0 3.2 0.00 0.05 0.05 72 1013.1
20260510042550 15 110 1.6 3.2 0.00 0.05 0.05 73 1012.9
20260510042049 15 110 1.6 3.2 0.00 0.05 0.05 72 1012.9
20260510041604 15 110 1.6 3.2 0.00 0.05 0.05 71 1013.0
20260510041049 16 110 0.0 3.2 0.00 0.05 0.05 68 1013.0
20260510040549 16 110 0.0 1.6 0.00 0.05 0.05 68 1013.1
20260510040049 16 0 0.0 3.2 0.00 0.05 0.05 70 1013.1
20260510035550 16 0 0.0 3.2 0.00 0.08 0.05 68 1013.2
20260510035049 16 110 1.6 3.2 0.00 0.08 0.05 68 1013.2
20260510034600 16 0 0.0 1.6 0.00 0.08 0.05 68 1013.2
20260510034050 17 110 0.0 1.6 0.00 0.08 0.05 66 1013.2
20260510033551 16 110 0.0 1.6 0.00 0.08 0.05 65 1013.2
20260510033051 16 110 0.0 1.6 0.00 0.08 0.05 67 1013.1
20260510032549 16 0 0.0 0.0 0.00 0.08 0.05 69 1013.0
20260510032049 16 0 0.0 0.0 0.00 0.08 0.05 71 1013.0
20260510031557 15 0 0.0 0.0 0.00 0.08 0.05 72 1012.8
20260510031049 15 0 0.0 3.2 0.00 0.08 0.05 73 1012.8
20260510030549 15 0 0.0 3.2 0.00 0.08 0.05 72 1012.5
20260510030056 15 110 1.6 3.2 0.00 0.08 0.05 71 1012.4
20260510025549 15 110 1.6 3.2 0.00 0.08 0.05 69 1012.3
20260510025053 16 110 1.6 4.8 0.00 0.08 0.05 68 1012.4
20260510024555 16 110 1.6 4.8 0.00 0.08 0.05 66 1012.4
20260510024049 16 110 1.6 3.2 0.00 0.08 0.05 66 1012.3
20260510023553 16 110 1.6 3.2 0.00 0.08 0.05 64 1012.3
20260510023053 17 110 1.6 3.2 0.00 0.08 0.05 61 1012.2
20260510022552 17 110 0.0 3.2 0.00 0.08 0.05 62 1012.1
20260510022056 17 0 0.0 3.2 0.00 0.08 0.05 60 1012.0
20260510021557 16 0 0.0 1.6 0.00 0.08 0.05 64 1011.9
20260510021049 16 0 0.0 1.6 0.00 0.08 0.05 65 1011.7
20260510020550 16 0 0.0 4.8 0.00 0.08 0.05 69 1011.6
20260510020100 16 0 1.6 4.8 0.00 0.08 0.05 67 1011.5
20260510015549 16 120 1.6 3.2 0.00 0.08 0.05 65 1011.3
20260510015049 16 0 0.0 3.2 0.00 0.08 0.05 66 1011.3
20260510014559 17 120 1.6 4.8 0.00 0.08 0.05 66 1011.2
20260510014049 17 120 1.6 4.8 0.00 0.08 0.05 66 1011.1
20260510013550 17 120 1.6 4.8 0.00 0.08 0.05 66 1011.1
20260510013058 17 120 1.6 3.2 0.00 0.08 0.05 62 1011.1
20260510012549 17 120 1.6 3.2 0.00 0.08 0.05 65 1011.1
20260510012049 18 120 1.6 3.2 0.00 0.08 0.05 63 1011.0
20260510011601 18 120 1.6 3.2 0.00 0.08 0.05 60 1011.0
20260510011048 18 120 1.6 3.2 0.00 0.08 0.05 60 1010.9
20260510010548 19 120 0.0 4.8 0.00 0.08 0.05 59 1010.9
20260510010056 19 120 1.6 4.8 0.00 0.08 0.05 58 1010.7
20260510005549 20 254 1.6 3.2 0.00 0.08 0.05 56 1010.7
20260510005052 20 254 1.6 3.2 0.00 0.08 0.05 56 1010.6
20260510004553 20 254 1.6 3.2 0.00 0.08 0.05 55 1010.4
20260510004049 21 0 0.0 3.2 0.00 0.08 0.05 55 1010.4
20260510003556 21 0 0.0 3.2 0.00 0.08 0.05 52 1010.4
20260510003057 22 254 0.0 1.6 0.00 0.08 0.05 49 1010.4
20260510002549 23 0 0.0 0.0 0.00 0.08 0.05 41 1010.3
20260510002049 23 0 0.0 1.6 0.00 0.08 0.05 40 1010.3
20260510001554 23 0 0.0 1.6 0.00 0.08 0.05 40 1010.3
20260510001053 23 0 0.0 1.6 0.00 0.08 0.05 38 1010.3
20260510000550 23 0 0.0 1.6 0.00 0.08 0.05 41 1010.4
20260510000059 23 0 0.0 1.6 0.00 0.08 0.05 40 1010.4
20260509235550 23 0 0.0 3.2 0.00 0.08 0.05 40 1010.5
20260509235050 24 0 0.0 3.2 0.00 0.08 0.05 39 1010.4
20260509234604 24 0 0.0 4.8 0.00 0.08 0.05 38 1010.4
20260509234050 24 276 0.0 4.8 0.00 0.08 0.05 37 1010.4
20260509233549 24 217 0.0 4.8 0.00 0.08 0.05 41 1010.4
20260509233057 24 327 0.0 6.4 0.00 0.08 0.05 37 1010.3
20260509232550 25 318 1.6 6.4 0.00 0.08 0.05 37 1010.3
20260509232050 25 303 3.2 8.0 0.00 0.08 0.05 34 1010.4
20260509231608 25 306 3.2 8.0 0.00 0.08 0.05 35 1010.3
20260509231050 25 207 3.2 8.0 0.00 0.08 0.05 40 1010.3
20260509230549 26 0 0.0 3.2 0.00 0.08 0.05 33 1010.4
20260509225549 26 0 0.0 9.7 0.00 0.08 0.05 41 1010.3
20260509225049 26 0 0.0 11.3 0.00 0.08 0.05 34 1010.3
20260509224556 25 339 3.2 11.3 0.00 0.08 0.05 38 1010.3
20260509224053 26 270 1.6 4.8 0.00 0.08 0.05 37 1010.2
20260509223549 26 293 1.6 6.4 0.00 0.08 0.05 33 1010.3
20260509223050 26 0 1.6 6.4 0.00 0.08 0.05 41 1010.3
20260509222552 26 318 1.6 6.4 0.00 0.08 0.05 36 1010.3
20260509222053 25 340 1.6 6.4 0.00 0.08 0.05 36 1010.4
20260509221557 25 313 3.2 11.3 0.00 0.08 0.05 36 1010.3
20260509221049 25 301 3.2 12.9 0.00 0.08 0.05 40 1010.3
20260509220549 26 314 4.8 16.1 0.00 0.08 0.05 36 1010.3
20260509220056 26 14 8.0 16.1 0.00 0.08 0.05 33 1010.2
20260509215549 26 322 4.8 14.5 0.00 0.08 0.05 32 1010.3
20260509215050 26 327 3.2 8.0 0.00 0.08 0.05 32 1010.2
20260509214554 26 0 3.2 8.0 0.00 0.08 0.05 34 1010.1
20260509214049 26 308 1.6 12.9 0.00 0.08 0.05 33 1010.2
20260509213550 26 319 3.2 12.9 0.00 0.08 0.05 32 1010.2
20260509213054 26 305 3.2 12.9 0.00 0.08 0.05 32 1010.1
20260509212549 26 212 1.6 12.9 0.00 0.08 0.05 37 1010.0
20260509212049 26 249 3.2 16.1 0.00 0.08 0.05 41 1010.2
20260509211555 26 241 4.8 16.1 0.00 0.08 0.05 37 1010.2
20260509211050 26 248 1.6 12.9 0.00 0.08 0.05 33 1010.4
20260509210552 26 199 4.8 12.9 0.00 0.08 0.05 32 1010.4
20260509210105 26 257 1.6 12.9 0.00 0.08 0.05 37 1010.5
20260509205553 26 0 3.2 12.9 0.00 0.08 0.05 38 1010.5
20260509205049 26 301 6.4 14.5 0.00 0.08 0.05 38 1010.6
20260509204553 26 329 1.6 14.5 0.00 0.08 0.05 34 1010.6
20260509204049 26 195 6.4 14.5 0.00 0.08 0.05 35 1010.6
20260509203552 26 226 1.6 9.7 0.00 0.08 0.05 37 1010.6
20260509203059 26 302 6.4 12.9 0.00 0.08 0.05 32 1010.7